This is the latest recevied weather packets stored in our database for station/object KQ7A. If no packets are shown the sender has not sent any weather packets the latest 10 day(s).
| Time | Temp. | Humidity | Pressure | Rain* | Wind** | Luminosity | Snow |
|---|---|---|---|---|---|---|---|
| 1778106552 | 23.89° C | 24% | 1020.9 hPa | 0 mm | - | 659 W/m² | - |
| 1778106249 | 23.89° C | 24% | 1021.1 hPa | 0 mm | - | 662 W/m² | - |
| 1778105946 | 23.89° C | 26% | 1021.1 hPa | 0 mm | - | 658 W/m² | - |
| 1778105643 | 23.33° C | 25% | 1021.3 hPa | 0 mm | - | 654 W/m² | - |
| 1778105341 | 23.89° C | 27% | 1021.2 hPa | 0 mm | - | 640 W/m² | - |
| 1778105036 | 23.89° C | 27% | 1021.3 hPa | 0 mm | - | 639 W/m² | - |
| 1778104733 | 23.33° C | 25% | 1021.3 hPa | 0 mm | - | 665 W/m² | - |
| 1778104429 | 23.33° C | 23% | 1021.3 hPa | 0 mm | - | 677 W/m² | - |
| 1778104125 | 23.33° C | 27% | 1021.4 hPa | 0 mm | - | 693 W/m² | - |
| 1778103822 | 23.89° C | 25% | 1021.3 hPa | 0 mm | - | 706 W/m² | - |
| 1778103520 | 22.78° C | 23% | 1021.5 hPa | 0 mm | - | 704 W/m² | - |
| 1778103217 | 23.33° C | 20% | 1021.8 hPa | 0 mm | - | 710 W/m² | - |
| 1778102914 | 23.33° C | 28% | 1021.5 hPa | 0 mm | - | 715 W/m² | - |
| 1778102609 | 23.33° C | 25% | 1021.9 hPa | 0 mm | - | 718 W/m² | - |
| 1778102299 | 23.89° C | 25% | 1021.8 hPa | 0 mm | - | 718 W/m² | - |
| 1778101995 | 23.33° C | 23% | 1021.6 hPa | 0 mm | - | 717 W/m² | - |
| 1778101693 | 22.78° C | 27% | 1022 hPa | 0 mm | - | 723 W/m² | - |
| 1778101390 | 23.33° C | 27% | 1021.9 hPa | 0 mm | - | 742 W/m² | - |
| 1778101087 | 23.33° C | 38% | 1021.8 hPa | 0 mm | - | 747 W/m² | - |
| 1778100783 | 22.78° C | 30% | 1022 hPa | 0 mm | - | 743 W/m² | - |
| 1778100479 | 22.78° C | 30% | 1021.9 hPa | 0 mm | - | 745 W/m² | - |
| 1778100177 | 22.22° C | 28% | 1022 hPa | 0 mm | - | 746 W/m² | - |
| 1778099875 | 22.22° C | 27% | 1021.9 hPa | 0 mm | - | 750 W/m² | - |
| 1778099572 | 21.67° C | 37% | 1022 hPa | 0 mm | - | 753 W/m² | - |
| 1778099268 | 22.22° C | 33% | 1022.1 hPa | 0 mm | - | 757 W/m² | - |
* Rain latest hour (hover to see other rain measurements)
** Current wind speed in m/s (hover to see current wind gust speed)